Погода в Андалусии

США     31°18′49″N   86°28′43″W
темп.,
°C
ветер,
м/с
пор.,
м/с
влажн.,
%
обл.,
%
осадки,
мм/ч
давл.,
гПа
погр.,
м
18 сентября, сб
сб1801:00+22юв1298100 0.1 101750
04:00+21в229696 0.0 101857
07:00+21юв129690 0.0 101855
10:00+25всв0184100 0.0 1019378
13:00+27юз1172100 0.1 1018741
16:00+23ююв1294100 1.0 101664
19:00+23ююв1196100 1.1 101618
22:00+22юв129685 0.0 101847
19 сентября, вс
вс1901:00+22юв1297100 0.0 101761
04:00+22вюв1296100 0.0 101670
07:00+21в1395100 0.0 1017102
10:00+26в2477100 0.0 1017617
13:00+27в237997 1.8 1016720
16:00+26в238699 3.6 1014526
19:00+23в2396100 7.7 101576
22:00+23в249989 0.0 1016125
20 сентября, пн
пн2001:00+22юв119940 0.0 101633
04:00+22ююв119863 0.0 101512
07:00+22юв1199100 0.0 101636
10:00+26ююв2280100 0.0 1018605
13:00+30ююз235798 0.3 10161504
16:00+27юз24824 4.4 1015397
19:00+24юз01910 7.1 101611
22:00+23ююз22950 0.0 101728
21 сентября, вт
вт2101:00+21юз11950 0.0 101712
04:00+21юз11972 0.0 101711
07:00+22ссв11976 0.0 101814
10:00+28зюз01745 0.1 1019617
13:00+30з226230 1.0 10171303
16:00+30з236213 1.1 10151240
19:00+24зсз11885 4.9 101611
22:00+23зюз11931 0.8 101611
22 сентября, ср
ср2201:00+22зсз11959 0.8 101511
04:00+21сз2498100 0.0 101598
07:00+22сз389991 0.0 1015436
10:00+22сз4894100 0.1 1017581
13:00+24ссз577370 0.1 1016900
16:00+26с58541 0.0 10141435
19:00+19ссз29700 0.0 1015233
22:00+18с413670 0.0 1017616